Los Angeles - LAX

The City of Angels

The Los Angeles International Airport is the largest West Coast hub in the United States and acts as a key connection point for flights coming to and from destinations throughout and across the Pacific Ocean. American Airlines operates enough flights out of this mega hub to make up around 25% of the total passenger share.

LAX Based Pilots: 13   Miles to LAX: 265516
Flights from LAX: 274   Total Hours: 1358.54
Routes using LAX: 578   From LAX: 686.45
Total Miles: 547238   Hours To LAX: 672.09
Miles from LAX: 281722   LAX Charts: Click Here
VATSIM METAR: KLAX 042253Z 24010KT 10SM FEW010 FEW100 23/18 A2989 RMK AO2 SLP119 T02330183
 
         
View More: Click Here
   

 

Earn Your Wings

Interested in joining our LAX hub? Hover for more!

Your journey starts here. Your journey starts now. A whole new experience is at your fingertips.

Like what you see and ready to join the team?

A rewarding and memorable virtual airline experience awaits!